User: anonymous   Login
Location: Fort Wayne
(41.1310°N, 85.1290°W)
Time: 10:49:08
(UTC-04:00)
Language:

Cosmos 1000 Rocket - Orbit

View from above orbital plane
View from above orbital plane
View from above satellite
View from above satellite

Ground track
Ground track

The orbit data is extracted from the following two-line orbital elements,

1 10777U 78034B   15244.87545008  .00000010  00000-0 -52684-5 0  9999
2 10777  82.9454 357.2255 0025208 228.8003 249.7196 13.77348497880316
Epoch (UTC): 01 September 2015 21:00:38
Eccentricity: 0.0025208
inclination: 82.9454°
perigee height: 955 km
apogee height: 992 km
right ascension of ascending node: 357.2255°
argument of perigee: 228.8003°
revolutions per day: 13.77348497
mean anomaly at epoch: 249.7196°
orbit number at epoch: 88031

The dashed part of the orbit path shows where the satellite is in the earth's shadow,  

DLR